TimeEST,TemperatureF,Dew PointF,Humidity,Sea Level PressureIn,VisibilityMPH,Wind Direction,Wind SpeedMPH,Gust SpeedMPH,PrecipitationIn,Events,Conditions,WindDirDegrees,DateUTC
12:53 AM,55.9,51.1,84,29.93,10.0,South,4.6,-,N/A,,Overcast,170,2007-01-01 05:53:00
1:53 AM,55.0,48.0,77,29.94,10.0,South,9.2,-,N/A,,Mostly Cloudy,190,2007-01-01 06:53:00
2:53 AM,51.1,45.0,80,29.96,10.0,South,6.9,-,N/A,,Mostly Cloudy,180,2007-01-01 07:53:00
3:53 AM,50.0,43.0,77,29.95,10.0,South,6.9,-,N/A,,Scattered Clouds,180,2007-01-01 08:53:00
4:53 AM,46.9,42.1,83,29.95,10.0,South,6.9,-,N/A,,Clear,170,2007-01-01 09:53:00
5:53 AM,45.0,41.0,86,29.96,10.0,South,6.9,-,N/A,,Clear,190,2007-01-01 10:53:00
6:53 AM,44.1,39.9,85,29.96,10.0,South,5.8,-,N/A,,Clear,170,2007-01-01 11:53:00
7:53 AM,43.0,39.9,89,29.97,10.0,South,5.8,-,N/A,,Partly Cloudy,180,2007-01-01 12:53:00
8:53 AM,46.0,42.1,86,29.97,10.0,South,4.6,-,N/A,,Partly Cloudy,180,2007-01-01 13:53:00
9:53 AM,50.0,42.1,74,29.96,10.0,South,8.1,-,N/A,,Partly Cloudy,170,2007-01-01 14:53:00
10:53 AM,51.1,41.0,68,29.95,10.0,South,18.4,-,N/A,,Partly Cloudy,180,2007-01-01 15:53:00
11:53 AM,53.1,39.9,61,29.93,10.0,South,20.7,26.5,N/A,,Partly Cloudy,190,2007-01-01 16:53:00
12:53 PM,52.0,41.0,66,29.92,10.0,SW,12.7,-,N/A,,Mostly Cloudy,230,2007-01-01 17:53:00
1:53 PM,51.1,37.0,59,29.91,10.0,SW,17.3,26.5,N/A,,Mostly Cloudy,220,2007-01-01 18:53:00
2:53 PM,50.0,37.0,61,29.94,10.0,SW,12.7,-,N/A,,Overcast,220,2007-01-01 19:53:00
3:53 PM,46.9,37.0,68,29.99,10.0,SW,16.1,-,N/A,,Overcast,230,2007-01-01 20:53:00
4:53 PM,46.0,35.1,66,30.02,10.0,SW,13.8,-,N/A,,Mostly Cloudy,220,2007-01-01 21:53:00
5:53 PM,42.1,36.0,79,30.08,7.0,WSW,16.1,-,0.00,Rain,Light Rain,250,2007-01-01 22:53:00
6:12 PM,42.8,35.6,76,30.08,10.0,WSW,17.3,23.0,0.01,,Overcast,240,2007-01-01 23:12:00
6:53 PM,41.0,34.0,76,30.12,10.0,West,17.3,25.3,0.01,Rain,Light Rain,270,2007-01-01 23:53:00
7:26 PM,39.2,33.8,81,30.13,10.0,West,15.0,-,0.00,,Overcast,270,2007-01-02 00:26:00
7:53 PM,39.0,32.0,76,30.16,10.0,West,15.0,-,0.00,,Overcast,260,2007-01-02 00:53:00
8:53 PM,37.0,30.0,76,30.20,10.0,WSW,9.2,-,N/A,,Mostly Cloudy,240,2007-01-02 01:53:00
9:53 PM,37.0,30.0,76,30.22,10.0,WSW,10.4,-,N/A,,Mostly Cloudy,240,2007-01-02 02:53:00
10:43 PM,37.4,30.2,75,30.23,10.0,WSW,9.2,-,N/A,,Overcast,240,2007-01-02 03:43:00
10:53 PM,37.0,30.0,76,30.24,10.0,SW,8.1,-,N/A,,Overcast,230,2007-01-02 03:53:00
11:53 PM,37.0,30.0,76,30.26,10.0,West,6.9,-,N/A,,Overcast,260,2007-01-02 04:53:00